When you browse on this site, cookies collect data to enhance your experience and personalize the content and advertising you see.
Visit our Privacy Policy to learn more. By continuing to use the site, you agree to this use of cookies and data.
  • In Romania
  • List of Countries
  • For 7 days
  • Water Temperature
  • Weather Map
  • Weather Widgets
  • user-avatar
    Login

    Hourly Weather Saint-Louis

    Today, 19 September, Thursday

    Time Temperature Precipitation Wind Pressure Humidity
    00:00 +10°C° 0 mm 2 mps 744 mmHg 76%
    01:00 +9°C° 0 mm 2 mps 744 mmHg 79%
    02:00 +9°C° 0 mm 2 mps 744 mmHg 80%
    03:00 +8°C° 0 mm 2 mps 744 mmHg 81%
    04:00 +8°C° 0 mm 2 mps 743 mmHg 82%
    05:00 +8°C° 0 mm 2 mps 744 mmHg 81%
    06:00 +8°C° 0 mm 2 mps 744 mmHg 80%
    07:00 +9°C° 0 mm 2 mps 744 mmHg 80%
    08:00 +11°C° 0 mm 3 mps 745 mmHg 72%
    09:00 +12°C° 0 mm 3 mps 745 mmHg 65%
    10:00 +14°C° 0 mm 4 mps 745 mmHg 57%
    11:00 +17°C° 0 mm 4 mps 745 mmHg 53%
    12:00 +18°C° 0 mm 4 mps 744 mmHg 49%
    13:00 +19°C° 0 mm 4 mps 744 mmHg 45%
    14:00 +19°C° 0 mm 4 mps 744 mmHg 46%
    15:00 +19°C° 0 mm 4 mps 744 mmHg 47%
    16:00 +19°C° 0 mm 5 mps 744 mmHg 48%
    17:00 +17°C° 0 mm 4 mps 744 mmHg 53%
    18:00 +14°C° 0 mm 4 mps 744 mmHg 59%
    19:00 +12°C° 0 mm 3 mps 745 mmHg 65%
    20:00 +11°C° 0 mm 3 mps 745 mmHg 67%
    21:00 +10°C° 0 mm 3 mps 745 mmHg 69%
    22:00 +9°C° 0 mm 2 mps 745 mmHg 71%
    23:00 +9°C° 0 mm 2 mps 745 mmHg 72%

    Tomorrow, 20 September, Friday

    Time Temperature Precipitation Wind Pressure Humidity
    00:00 +8°C° 0 mm 2 mps 745 mmHg 74%
    01:00 +7°C° 0 mm 2 mps 745 mmHg 75%
    02:00 +7°C° 0 mm 2 mps 745 mmHg 75%
    03:00 +7°C° 0 mm 2 mps 745 mmHg 76%
    04:00 +6°C° 0 mm 2 mps 745 mmHg 77%
    05:00 +6°C° 0 mm 2 mps 745 mmHg 77%
    06:00 +6°C° 0 mm 2 mps 744 mmHg 77%
    07:00 +7°C° 0 mm 1 mps 744 mmHg 78%
    08:00 +9°C° 0 mm 2 mps 744 mmHg 70%
    09:00 +12°C° 0 mm 2 mps 744 mmHg 63%
    10:00 +13°C° 0 mm 3 mps 744 mmHg 56%
    11:00 +16°C° 0 mm 3 mps 744 mmHg 52%
    12:00 +17°C° 0 mm 3 mps 743 mmHg 49%
    13:00 +19°C° 0 mm 3 mps 743 mmHg 45%
    14:00 +19°C° 0 mm 3 mps 743 mmHg 46%
    15:00 +20°C° 0 mm 3 mps 743 mmHg 46%
    16:00 +20°C° 0 mm 2 mps 742 mmHg 47%
    17:00 +18°C° 0 mm 2 mps 742 mmHg 54%
    18:00 +16°C° 0 mm 2 mps 742 mmHg 62%
    19:00 +14°C° 0 mm 2 mps 742 mmHg 70%
    20:00 +13°C° 0 mm 2 mps 742 mmHg 73%
    21:00 +12°C° 0 mm 1 mps 742 mmHg 76%
    22:00 +11°C° 0 mm 1 mps 742 mmHg 79%
    23:00 +11°C° 0 mm 1 mps 742 mmHg 81%

    Day after tomorrow, 21 September, Saturday

    Time Temperature Precipitation Wind Pressure Humidity
    00:00 +10°C° 0 mm 1 mps 742 mmHg 82%
    01:00 +10°C° 0 mm 1 mps 742 mmHg 84%
    02:00 +10°C° 0 mm 1 mps 741 mmHg 85%
    03:00 +10°C° 0 mm 1 mps 741 mmHg 85%
    04:00 +9°C° 0 mm 1 mps 741 mmHg 86%
    05:00 +10°C° 0 mm 1 mps 741 mmHg 85%
    06:00 +10°C° 0 mm 1 mps 741 mmHg 85%
    07:00 +10°C° 0 mm 1 mps 741 mmHg 85%
    08:00 +13°C° 0 mm 1 mps 741 mmHg 77%
    09:00 +16°C° 0 mm 1 mps 740 mmHg 69%
    10:00 +20°C° 0 mm 1 mps 740 mmHg 61%
    11:00 +21°C° 0 mm 1 mps 740 mmHg 57%
    12:00 +23°C° 0 mm 1 mps 740 mmHg 54%
    13:00 +25°C° 0 mm 2 mps 740 mmHg 50%
    14:00 +25°C° 0 mm 2 mps 739 mmHg 51%
    15:00 +25°C° 0 mm 2 mps 738 mmHg 53%
    16:00 +25°C° 0 mm 2 mps 738 mmHg 54%
    17:00 +23°C° 0 mm 2 mps 738 mmHg 62%
    18:00 +20°C° 0 mm 1 mps 738 mmHg 70%
    19:00 +18°C° 0 mm 1 mps 738 mmHg 77%
    20:00 +18°C° 0 mm 1 mps 738 mmHg 79%
    21:00 +16°C° 0 mm 1 mps 738 mmHg 80%
    22:00 +14°C° 0 mm 0 mps 738 mmHg 81%
    23:00 +15°C° 0 mm 1 mps 738 mmHg 80%

    22 September, Sunday

    Time Temperature Precipitation Wind Pressure Humidity
    00:00 +16°C° 0 mm 1 mps 738 mmHg 80%
    01:00 +16°C° 0 mm 1 mps 737 mmHg 79%
    02:00 +16°C° 0 mm 1 mps 737 mmHg 79%
    03:00 +16°C° 0 mm 1 mps 737 mmHg 80%
    04:00 +16°C° 0 mm 1 mps 736 mmHg 81%
    05:00 +16°C° 0 mm 1 mps 736 mmHg 82%
    06:00 +15°C° 0 mm 1 mps 736 mmHg 83%
    07:00 +15°C° 0 mm 1 mps 736 mmHg 85%
    08:00 +18°C° 0 mm 1 mps 736 mmHg 76%
    09:00 +20°C° 0 mm 1 mps 736 mmHg 68%
    10:00 +23°C° 0 mm 1 mps 736 mmHg 60%
    11:00 +24°C° 0 mm 1 mps 736 mmHg 56%
    12:00 +25°C° 0 mm 1 mps 735 mmHg 53%
    13:00 +27°C° 0 mm 1 mps 735 mmHg 49%
    14:00 +27°C° 0 mm 1 mps 734 mmHg 52%
    15:00 +26°C° 0 mm 1 mps 734 mmHg 55%
    16:00 +26°C° 0 mm 1 mps 734 mmHg 57%
    17:00 +24°C° 0 mm 1 mps 733 mmHg 65%
    18:00 +20°C° 0 mm 0 mps 733 mmHg 72%
    19:00 +18°C° 0 mm 0 mps 733 mmHg 80%
    20:00 +20°C° 0.1 mm 1 mps 734 mmHg 81%
    21:00 +19°C° 0.1 mm 2 mps 735 mmHg 83%
    22:00 +19°C° 0.1 mm 3 mps 735 mmHg 85%
    23:00 +18°C° 0.2 mm 4 mps 736 mmHg 86%

    23 September, Monday

    Time Temperature Precipitation Wind Pressure Humidity
    00:00 +15°C° 0.2 mm 4 mps 736 mmHg 88%
    01:00 +14°C° 0.2 mm 5 mps 737 mmHg 89%
    02:00 +14°C° 0.8 mm 5 mps 737 mmHg 91%
    03:00 +13°C° 0.8 mm 4 mps 737 mmHg 92%
    04:00 +13°C° 0.8 mm 3 mps 737 mmHg 94%
    05:00 +13°C° 0.5 mm 3 mps 738 mmHg 94%
    06:00 +14°C° 0.5 mm 2 mps 738 mmHg 94%
    07:00 +14°C° 0.5 mm 2 mps 738 mmHg 94%
    08:00 +14°C° 0.2 mm 2 mps 739 mmHg 92%
    09:00 +14°C° 0.2 mm 3 mps 739 mmHg 90%
    10:00 +14°C° 0.2 mm 3 mps 740 mmHg 89%
    11:00 +16°C° 0.2 mm 3 mps 740 mmHg 83%
    12:00 +17°C° 0.2 mm 3 mps 740 mmHg 77%
    13:00 +18°C° 0.2 mm 3 mps 740 mmHg 72%
    14:00 +18°C° 0.1 mm 3 mps 739 mmHg 71%
    15:00 +18°C° 0.1 mm 3 mps 739 mmHg 70%
    16:00 +18°C° 0.1 mm 3 mps 739 mmHg 69%
    17:00 +17°C° 0 mm 2 mps 739 mmHg 75%
    18:00 +15°C° 0 mm 2 mps 740 mmHg 82%
    19:00 +14°C° 0 mm 1 mps 740 mmHg 88%
    20:00 +13°C° 0 mm 1 mps 740 mmHg 89%
    21:00 +13°C° 0 mm 1 mps 740 mmHg 90%
    22:00 +12°C° 0 mm 1 mps 741 mmHg 91%
    23:00 +12°C° 0 mm 1 mps 741 mmHg 90%

    24 September, Tuesday

    Time Temperature Precipitation Wind Pressure Humidity
    00:00 +12°C° 0 mm 1 mps 741 mmHg 90%
    01:00 +11°C° 0 mm 1 mps 741 mmHg 90%
    02:00 +11°C° 0 mm 1 mps 741 mmHg 90%
    03:00 +11°C° 0 mm 1 mps 740 mmHg 90%
    04:00 +11°C° 0 mm 1 mps 740 mmHg 90%
    05:00 +11°C° 0 mm 1 mps 740 mmHg 90%
    06:00 +11°C° 0 mm 1 mps 740 mmHg 89%
    07:00 +11°C° 0 mm 1 mps 740 mmHg 89%
    08:00 +13°C° 0 mm 1 mps 740 mmHg 81%
    09:00 +15°C° 0 mm 1 mps 740 mmHg 74%
    10:00 +19°C° 0 mm 1 mps 740 mmHg 66%
    11:00 +20°C° 0 mm 1 mps 739 mmHg 61%
    12:00 +21°C° 0 mm 1 mps 739 mmHg 55%
    13:00 +22°C° 0 mm 1 mps 739 mmHg 50%
    14:00 +22°C° 0 mm 1 mps 739 mmHg 52%
    15:00 +22°C° 0 mm 1 mps 738 mmHg 53%
    16:00 +20°C° 0 mm 0 mps 738 mmHg 55%
    17:00 +18°C° 0 mm 0 mps 738 mmHg 58%
    18:00 +17°C° 0 mm 0 mps 738 mmHg 62%
    19:00 +16°C° 0 mm 0 mps 738 mmHg 65%
    20:00 +16°C° 0 mm 0 mps 738 mmHg 66%
    21:00 +15°C° 0 mm 0 mps 738 mmHg 66%
    22:00 +16°C° 0 mm 1 mps 738 mmHg 67%
    23:00 +16°C° 0 mm 1 mps 738 mmHg 68%
    Show more